Home   Weather   Yellowknife   Past weeks

Flag for Canada Past Weather in Yellowknife, Northwest Territories, Canada — Yesterday and Last 2 Weeks

Now
-9 °F

Light snow. Partly cloudy.


Feels Like: -30 °F
Forecast: -7 / -3 °F
Wind: 13 mph from North

Location: Yellowknife

Current Time: Dec 6, 2016 at 5:25:47 am

Latest Report: Dec 6, 2016 at 4:00 am


Visibility: 15 mi

Pressure: 30.66 "Hg

Humidity: 70%

Dew Point: -17 °F

Location of YellowknifeLocation

Past Weather in Yellowknife — Graph

°F

Yellowknife Temperature Yesterday

Maximum temperature yesterday: 9 °F (at 7:00 am)
Minimum temperature yesterday: -4 °F (at 9:00 pm)
Average temperature yesterday: 4 °F

High & Low Weather Summary for the Past Weeks

 TemperatureHumidityPressure
High30 °F (Nov 25, 12:00 pm)100% (Nov 25, 3:00 am)30.66 "Hg (Nov 25, 3:00 am)
Low-9 °F (Nov 22, 8:00 am)70% (Dec 6, 12:00 am)29.51 "Hg (Dec 3, 12:00 am)
Average16 °F89%29.87 "Hg
* Reported Nov 21 4:00 am — Dec 6 4:00 am, Yellowknife, Weather by CustomWeather, © 2016

Note: Actual official high and low records may vary slightly from our data, if they occured in-between our weather recording intervals... More about our weather records

Advertising

Yellowknife Weather History for the Previous 24 Hours

Scroll right to see more
 ConditionsComfort  
Time TempWeatherWind HumidityBarometerVisibility
4:00 am
Tue, Dec 6
-9 °FLight snow. Partly cloudy.13 mph70%30.66 "Hg15 mi
3:00 am-9 °FPassing clouds.13 mph70%30.65 "Hg15 mi
2:00 am-8 °FLight snow. Mostly cloudy.14 mph70%30.65 "Hg15 mi
1:00 am-6 °FLight snow. Overcast.13 mph70%30.63 "Hg15 mi
12:00 am-6 °FLight snow. Mostly cloudy.15 mph70%30.62 "Hg15 mi
11:00 pm
Mon, Dec 5
-4 °FLight snow. Overcast.15 mph71%30.61 "Hg15 mi
10:00 pm-4 °FLight snow. Mostly cloudy.16 mph71%30.60 "Hg6 mi
9:00 pm-4 °FLight snow. Mostly cloudy.16 mph77%30.58 "Hg6 mi
8:00 pm-2 °FLight snow. Mostly cloudy.18 mph77%30.56 "Hg6 mi
7:00 pm0 °FLight snow. Mostly cloudy.15 mph71%30.55 "Hg6 mi
6:00 pm0 °FLight snow. Mostly cloudy.17 mph71%30.53 "Hg6 mi
5:00 pm1 °FLight snow. Mostly cloudy.17 mph71%30.52 "Hg10 mi
4:00 pm1 °FLight snow. Mostly cloudy.22 mph71%30.49 "Hg10 mi
3:00 pm3 °FLight snow. Mostly cloudy.21 mph72%30.47 "Hg15 mi
2:00 pm5 °FLight snow. More clouds than sun.15 mph72%30.44 "Hg15 mi
1:00 pm5 °FLight snow. More clouds than sun.17 mph78%30.42 "Hg15 mi
12:00 pm7 °FLight snow. More clouds than sun.20 mph72%30.39 "Hg15 mi
11:00 am7 °FLight snow. More clouds than sun.21 mph78%30.37 "Hg3 mi
10:00 am9 °FLight snow. Mostly cloudy.20 mph72%30.34 "Hg5 mi
9:00 am9 °FLight snow. Mostly cloudy.20 mph78%30.29 "Hg10 mi
8:00 am9 °FLight snow. Mostly cloudy.20 mph85%30.27 "Hg3 mi
7:00 am9 °FLight snow. Overcast.20 mph78%30.24 "Hg8 mi
6:00 am7 °FLight snow. Overcast.17 mph85%30.22 "Hg6 mi
5:00 am7 °FLight snow. Mostly cloudy.18 mph85%30.21 "Hg6 mi
Weather by CustomWeather, © 2016

See weather overviewHow to use our weather pages